Total_Precipitation_Accumulation
0.00 0.00 0.00 0.00 0.00 0.00 0.00 0.00 0.00 0.03 0.09 0.13 0.18 0.23 0.27 0.31 0.69 1.81 1.32 1.31 1.95 1.56 1.10 1.61 1.35 0.68 0.31 0.27 0.23 0.09 0.08 0.06 0.05 0.02 0.01 0.02 0.02 0.02 0.03 0.04 0.12 0.16 0.10 0.09 0.05 0.06 0.08 0.10 0.10
0.00 0.00 0.00 0.00 0.00 0.03 0.04 0.01 0.01 0.06 0.17 0.23 0.32 0.35 0.44 0.40 0.20 0.71 0.94 0.78 0.73 1.52 1.61 1.47 2.33 1.47 1.00 0.75 0.82 0.87 0.41 0.29 0.09 0.07 0.10 0.12 0.09 0.08 0.10 0.07 0.11 0.09 0.09 0.10 0.10 0.12 0.14 0.13 0.12
0.00 0.00 0.00 0.00 0.00 0.04 0.05 0.01 0.05 0.08 0.16 0.14 0.11 0.21 0.45 0.65 0.60 0.75 0.82 0.94 0.84 1.09 1.01 1.31 2.12 1.59 1.06 1.15 1.15 1.68 2.01 1.89 1.04 0.46 0.42 0.39 0.31 0.20 0.12 0.11 0.11 0.11 0.16 0.15 0.10 0.17 0.17 0.07 0.03
0.00 0.00 0.00 0.00 0.00 0.00 0.00 0.02 0.07 0.11 0.14 0.09 0.10 0.33 0.49 0.58 0.49 0.48 0.79 1.30 1.85 2.08 1.53 1.80 2.17 1.34 0.75 1.13 1.46 1.53 2.18 3.37 4.19 4.09 2.55 1.36 0.89 0.47 0.41 0.30 0.26 0.27 0.33 0.40 0.43 0.45 0.36 0.03 0.01
0.00 0.00 0.00 0.00 0.00 0.00 0.00 0.02 0.08 0.13 0.17 0.42 0.18 0.26 0.70 0.80 0.32 0.44 1.17 2.29 3.43 4.59 4.05 3.70 4.00 5.13 2.85 2.56 1.76 1.36 1.47 2.52 4.90 5.29 3.92 2.58 1.93 1.72 1.18 0.69 0.51 0.55 0.52 0.42 0.44 0.26 0.19 0.03 0.01
0.00 0.00 0.00 0.00 0.00 0.01 0.03 0.13 0.22 0.38 0.35 0.46 0.36 0.50 1.03 0.48 0.39 0.78 1.62 3.63 5.15 6.63 8.76 9.08 7.75 8.10 7.64 4.86 3.04 1.99 1.41 1.26 1.68 2.39 2.00 2.09 2.35 1.79 1.64 1.44 0.88 0.60 0.43 0.40 0.29 0.13 0.08 0.06 0.03
0.00 0.00 0.00 0.00 0.01 0.00 0.02 0.15 0.35 0.53 0.42 0.24 0.40 0.45 1.05 0.98 0.78 0.90 1.56 2.79 5.22 5.54 7.05 10.73 9.55 7.17 5.94 6.78 5.98 3.58 2.63 1.74 1.50 1.48 1.79 1.43 2.21 1.72 1.28 1.40 1.61 0.78 0.42 0.62 0.48 0.33 0.54 0.22 0.24
0.00 0.00 0.00 0.00 0.01 0.02 0.06 0.15 0.21 0.15 0.09 0.09 0.16 0.48 1.11 0.76 0.53 0.47 0.58 0.87 2.16 2.60 3.37 3.98 4.09 3.32 2.93 3.65 4.60 4.44 3.05 2.55 2.21 1.49 1.61 1.74 1.69 1.59 1.43 1.46 1.68 1.33 0.59 0.52 0.52 0.69 0.52 0.57 0.39
0.00 0.00 0.00 0.00 0.03 0.11 0.16 0.28 0.33 0.20 0.06 0.11 0.26 0.19 0.28 0.46 0.34 0.34 0.61 0.72 1.37 2.30 1.64 1.69 1.30 0.90 0.88 1.34 2.08 2.81 2.59 2.65 2.61 2.12 1.37 2.08 2.20 1.31 1.60 1.83 1.64 1.13 0.61 0.56 0.59 0.57 0.61 0.59 0.63
0.00 0.00 0.00 0.00 0.06 0.33 0.29 0.15 0.03 0.01 0.01 0.20 0.53 0.53 0.32 0.33 0.25 0.20 0.26 0.63 1.10 0.95 0.78 0.51 0.41 0.33 0.30 0.30 0.47 0.80 1.57 2.31 2.35 2.90 1.66 1.55 2.43 1.42 1.50 1.89 1.38 1.16 0.76 0.54 0.56 0.52 0.56 0.54 0.44
0.00 0.00 0.00 0.00 0.00 0.00 0.01 0.01 0.00 0.00 0.19 0.52 0.67 0.50 0.42 0.35 0.24 0.27 0.45 0.40 0.52 0.32 0.22 0.28 0.50 0.51 0.25 0.26 0.24 0.32 0.77 1.56 1.62 2.61 2.26 1.00 1.45 1.74 1.82 2.22 1.40 0.98 0.93 0.74 0.65 0.38 0.32 0.27 0.29
0.00 0.00 0.00 0.00 0.00 0.00 0.00 0.00 0.01 0.04 0.27 0.22 0.26 0.69 0.62 0.49 0.39 0.33 0.29 0.22 0.11 0.16 0.16 0.12 0.18 0.27 0.29 0.28 0.27 0.29 0.56 0.98 1.02 1.39 2.46 1.26 1.17 1.35 1.57 1.64 1.25 0.66 0.60 0.57 0.61 0.46 0.40 0.38 0.43
0.00 0.00 0.00 0.00 0.00 0.00 0.00 0.01 0.02 0.08 0.45 0.51 0.27 0.32 0.45 0.50 0.44 0.51 0.31 0.11 0.09 0.08 0.16 0.20 0.21 0.39 0.49 0.49 0.37 0.29 0.79 0.95 0.87 0.90 1.28 1.26 1.16 1.01 1.39 1.18 1.44 0.80 0.57 0.47 0.50 0.40 0.35 0.32 0.35
0.00 0.00 0.00 0.00 0.00 0.00 0.00 0.03 0.09 0.18 0.77 0.30 0.15 0.08 0.17 0.26 0.28 0.24 0.13 0.10 0.09 0.10 0.19 0.28 0.29 0.47 0.37 0.50 0.58 0.67 0.83 0.95 0.82 0.74 0.91 0.96 1.11 1.10 1.30 1.21 1.14 1.04 1.02 0.54 0.49 0.46 0.27 0.30 0.35
0.00 0.00 0.00 0.00 0.00 0.00 0.01 0.03 0.13 0.21 0.39 0.13 0.05 0.05 0.06 0.11 0.16 0.10 0.11 0.23 0.16 0.22 0.25 0.42 0.65 0.56 0.29 0.26 0.31 0.65 1.07 0.89 0.78 0.79 0.83 0.87 0.86 0.93 1.03 1.14 1.05 0.90 1.29 0.85 0.59 0.65 0.63 0.46 0.31
0.00 0.00 0.00 0.00 0.00 0.00 0.02 0.17 0.29 0.13 0.09 0.07 0.04 0.01 0.02 0.03 0.01 0.00 0.02 0.01 0.03 0.07 0.19 0.43 0.61 0.58 0.51 0.33 0.46 0.49 0.86 1.10 0.93 0.71 0.76 1.06 1.01 0.93 0.86 1.04 0.85 1.05 1.03 0.84 0.72 0.90 0.89 0.76 0.40
0.00 0.00 0.00 0.00 0.00 0.00 0.01 0.03 0.15 0.07 0.09 0.12 0.10 0.04 0.00 0.02 0.01 0.00 0.00 0.01 0.02 0.02 0.19 0.62 0.82 0.83 0.78 0.69 0.73 1.01 0.97 0.96 0.77 0.77 0.69 0.68 0.74 0.97 0.90 0.90 1.00 1.21 1.30 1.19 1.22 1.14 1.09 0.86 0.67
0.00 0.00 0.00 0.00 0.00 0.00 0.00 0.00 0.09 0.05 0.03 0.09 0.15 0.10 0.02 0.01 0.00 0.00 0.00 0.02 0.03 0.03 0.26 0.74 0.92 1.16 1.30 1.14 1.06 0.89 0.81 0.73 0.71 0.63 0.70 0.82 0.85 0.82 0.96 0.87 0.83 1.07 1.39 1.10 1.04 0.93 1.00 0.97 0.96
0.00 0.00 0.00 0.00 0.00 0.00 0.00 0.00 0.00 0.01 0.11 0.10 0.14 0.07 0.01 0.00 0.00 0.00 0.01 0.02 0.04 0.10 0.40 0.74 0.90 1.20 1.16 0.66 0.53 0.57 0.57 0.45 0.59 0.60 0.68 0.86 1.09 1.12 1.01 0.88 0.86 0.96 1.01 1.02 1.29 1.55 1.74 1.54 1.23
0.02 0.02 0.00 0.00 0.00 0.00 0.00 0.00 0.00 0.00 0.00 0.02 0.03 0.03 0.02 0.00 0.00 0.01 0.03 0.06 0.12 0.24 0.52 0.62 0.49 0.35 0.21 0.18 0.29 0.42 0.51 0.52 0.48 0.57 0.74 0.69 1.02 1.05 0.88 0.86 0.85 0.99 1.12 1.05 0.88 1.02 1.18 1.17 1.06
0.01 0.01 0.00 0.00 0.00 0.02 0.02 0.01 0.00 0.00 0.01 0.01 0.01 0.01 0.01 0.01 0.00 0.02 0.06 0.13 0.17 0.15 0.16 0.14 0.11 0.09 0.13 0.16 0.38 0.61 0.91 0.84 0.69 0.60 0.60 0.75 0.95 1.12 1.00 0.89 0.79 0.79 1.17 1.44 1.21 1.12 1.11 1.01 0.99
0.06 0.00 0.00 0.02 0.08 0.10 0.05 0.06 0.00 0.00 0.00 0.00 0.00 0.00 0.01 0.03 0.02 0.03 0.02 0.02 0.01 0.03 0.14 0.15 0.15 0.17 0.26 0.30 0.40 0.54 0.54 0.42 0.28 0.28 0.36 0.49 0.85 1.20 0.97 1.19 1.25 1.17 0.94 1.10 1.47 1.41 1.24 1.32 1.35
0.07 0.00 0.01 0.01 0.02 0.08 0.07 0.12 0.03 0.01 0.01 0.00 0.00 0.01 0.00 0.01 0.00 0.00 0.00 0.01 0.06 0.09 0.16 0.18 0.17 0.20 0.32 0.38 0.43 0.76 0.83 0.85 0.83 0.93 1.05 1.14 1.25 1.50 1.42 1.20 1.63 1.78 1.69 1.33 1.62 1.97 2.11 2.01 2.05
0.02 0.02 0.03 0.05 0.09 0.22 0.04 0.10 0.05 0.03 0.11 0.09 0.14 0.08 0.04 0.04 0.03 0.01 0.03 0.07 0.09 0.13 0.18 0.15 0.27 0.43 0.74 0.99 1.15 1.31 1.55 1.58 1.54 1.51 1.49 1.51 1.68 1.95 2.02 2.14 2.10 2.55 2.54 2.29 1.97 1.97 2.36 2.81 2.80
0.05 0.04 0.14 0.31 0.24 0.12 0.06 0.07 0.03 0.18 0.25 0.35 0.32 0.30 0.30 0.11 0.09 0.09 0.10 0.11 0.15 0.15 0.18 0.42 0.90 1.26 1.28 1.27 1.19 1.14 1.23 1.34 0.97 0.77 0.76 0.79 0.97 0.93 1.01 1.18 1.41 1.67 2.11 1.98 2.03 2.02 1.88 1.95 2.10
0.05 0.05 0.10 0.36 0.22 0.19 0.12 0.11 0.12 0.40 0.31 0.65 0.33 0.59 0.42 0.19 0.20 0.18 0.21 0.22 0.24 0.25 0.41 0.91 0.94 0.83 0.72 0.78 0.82 0.96 0.95 1.01 0.83 0.66 0.76 0.63 0.57 0.59 0.77 0.99 1.25 1.41 1.84 2.06 1.69 1.59 1.89 2.03 2.02
0.08 0.08 0.05 0.20 0.23 0.32 0.12 0.14 0.28 0.28 0.15 0.61 0.41 0.52 0.77 0.28 0.32 0.34 0.31 0.30 0.34 0.37 0.41 0.41 0.34 0.42 0.45 0.46 0.56 0.90 1.09 0.97 0.90 0.88 1.28 1.30 0.90 0.79 0.90 1.38 1.77 2.00 2.42 2.32 2.56 2.23 1.76 2.21 2.24
0.04 0.04 0.10 0.23 0.54 0.43 0.18 0.23 0.43 0.33 0.21 0.44 0.93 0.64 0.84 0.48 0.40 0.43 0.53 0.52 0.37 0.40 0.34 0.30 0.34 0.37 0.39 0.46 0.60 0.83 1.06 1.20 1.10 1.23 1.46 1.77 1.82 1.52 1.48 1.67 1.94 2.36 2.26 2.40 2.29 2.37 1.75 1.38 1.65
0.04 0.07 0.10 0.21 0.24 0.46 0.60 0.67 0.87 0.62 0.43 0.48 0.63 1.17 0.74 0.77 0.52 0.62 0.97 0.96 0.68 0.61 0.53 0.49 0.52 0.54 0.58 0.69 0.76 1.03 1.48 1.51 1.99 2.25 2.15 2.30 2.60 2.50 2.09 1.74 1.89 1.98 2.21 2.40 2.02 1.79 1.69 1.58 1.45
0.05 0.08 0.11 0.36 0.35 0.48 0.94 1.69 1.11 0.73 0.61 0.59 0.69 1.16 1.22 0.90 0.83 0.60 0.56 0.78 1.16 1.08 0.73 0.60 0.59 0.81 1.31 1.69 1.85 1.91 2.31 2.55 2.41 2.56 2.41 2.00 2.78 2.89 2.63 2.54 2.16 2.42 2.14 1.85 1.77 1.64 1.47 1.60 1.59